Location: Dürabuch
(48.2640°N, 11.2185°E)
Time: 21:34:44
(UTC+00:00)

Cosmos 468 Rocket - Pass Details

Date: 23 May 2024
Orbit: 741 x 777 km, 74.0° (Epoch: 14 June)

Event Time Altitude Azimuth Distance (km) Brightness Sun altitude
Rises 00:40:27 0° 332° (NNW) 3,269 7.9 -18.3°
Reaches altitude 10° 00:42:56 10° 326° (NNW) 2,334 6.9 -18.1°
Maximum altitude 00:47:57 45° 256° (WSW) 1,052 4.4 -17.8°
Enters shadow 00:49:50 32° 207° (SSW) 1,308 4.6 -17.7°
